Home > Weather > Adak > Past weeks

Flag for USA Past Weather in Adak, Alaska, USA — Yesterday and Last 2 Weeks

Now
52 °F

Mostly cloudy.


Feels Like: 48 °F
Forecast: 52 / 55 °F
Wind: 10 mph from Northeast

Location: Adak

Current Time: Aug 28, 2016 at 10:25:56 PM

Latest Report: Aug 28, 2016 at 9:56 PM


Visibility: 3 mi

Pressure: 30.16 "Hg

Humidity: 82%

Dew Point: 46 °F

Location of AdakLocation

Past Weather in Adak — Graph

°F

Adak Temperature Yesterday

Maximum temperature yesterday: 54 °F (at 10:16 AM)
Minimum temperature yesterday: 52 °F (at 12:16 AM)
Average temperature yesterday: 52 °F

High & Low Weather Summary for the Past Weeks

 TemperatureHumidityPressure
High61 °F (Aug 21, 5:16 PM)94% (Aug 22, 9:16 PM)30.30 "Hg (Aug 22, 9:16 PM)
Low46 °F (Aug 13, 10:56 PM)51% (Aug 24, 1:56 PM)29.70 "Hg (Aug 22, 6:56 PM)
Average52 °F74%30.09 "Hg
* Reported Aug 13 9:16 PM — Aug 28 9:16 PM, Adak, Weather by CustomWeather, © 2016

Note: Actual official high and low records may vary slightly from our data, if they occured in-between our weather recording intervals... More about our weather records

Advertising

Adak Weather History for the Previous 24 Hours

Scroll right to see more
 ConditionsComfort  
Time TempWeatherWind HumidityBarometerVisibility
9:16 PM
Sun, Aug 28
52 °FMostly cloudy.12 mph82%30.14 "Hg2 mi
8:56 PM52 °FMostly cloudy.13 mph82%30.14 "Hg5 mi
8:36 PM52 °FMostly cloudy.10 mph82%30.14 "Hg6 mi
8:16 PM52 °FOvercast.13 mph82%30.14 "Hg6 mi
7:56 PM54 °FMostly cloudy.12 mph77%30.14 "Hg5 mi
7:36 PM54 °FOvercast.13 mph77%30.14 "Hg6 mi
7:16 PM52 °FOvercast.14 mph82%30.14 "Hg3 mi
6:56 PM52 °FMore clouds than sun.12 mph82%30.14 "Hg2 mi
6:36 PM52 °FLow clouds.13 mph82%30.14 "Hg2 mi
6:16 PM52 °FMostly cloudy.14 mph82%30.15 "Hg2 mi
5:56 PM52 °FOvercast.13 mph82%30.15 "Hg3 mi
5:36 PM52 °FOvercast.15 mph82%30.15 "Hg2 mi
5:16 PM54 °FMostly cloudy.14 mph77%30.15 "Hg5 mi
4:56 PM55 °FOvercast.14 mph72%30.15 "Hg10 mi
4:36 PM55 °FMostly cloudy.No wind72%30.16 "Hg10 mi
4:16 PM54 °FOvercast.8 mph77%30.16 "Hg10 mi
3:56 PM55 °FMostly cloudy.8 mph72%30.16 "Hg10 mi
3:36 PM57 °FMostly cloudy.14 mph72%30.16 "Hg10 mi
3:16 PM57 °FMostly cloudy.8 mph72%30.16 "Hg10 mi
2:56 PM57 °FCloudy.9 mph72%30.16 "Hg10 mi
2:36 PM57 °FMostly cloudy.10 mph72%30.16 "Hg10 mi
2:16 PM57 °FPartly sunny.10 mph72%30.16 "Hg10 mi
1:56 PM59 °FBroken clouds.14 mph68%30.16 "Hg10 mi
1:36 PM59 °FBroken clouds.6 mph68%30.16 "Hg10 mi
1:16 PM57 °FOvercast.15 mph72%30.16 "Hg10 mi
12:56 PM57 °FMostly cloudy.10 mph72%30.16 "Hg10 mi
12:36 PM57 °FMostly cloudy.9 mph72%30.17 "Hg10 mi
12:16 PM55 °FOvercast.10 mph72%30.17 "Hg10 mi
11:56 AM55 °FOvercast.12 mph72%30.16 "Hg10 mi
11:36 AM55 °FOvercast.13 mph72%30.16 "Hg10 mi
11:16 AM54 °FOvercast.15 mph77%30.15 "Hg10 mi
10:56 AM54 °FMostly cloudy.13 mph77%30.15 "Hg10 mi
10:36 AM54 °FMore clouds than sun.9 mph77%30.15 "Hg10 mi
10:16 AM54 °FMore clouds than sun.9 mph77%30.14 "Hg10 mi
9:56 AM52 °FMostly cloudy.8 mph82%30.14 "Hg10 mi
9:36 AM52 °FOvercast.9 mph82%30.14 "Hg10 mi
9:16 AM52 °FOvercast.8 mph82%30.14 "Hg10 mi
8:56 AM52 °FOvercast.8 mph82%30.14 "Hg10 mi
8:36 AM52 °FMostly cloudy.7 mph77%30.13 "Hg9 mi
8:16 AM54 °FOvercast.7 mph72%30.13 "Hg10 mi
7:56 AM54 °FOvercast.7 mph77%30.12 "Hg10 mi
7:36 AM54 °FMostly cloudy.6 mph77%30.11 "Hg10 mi
7:16 AM54 °FMostly cloudy.8 mph77%30.11 "Hg10 mi
6:56 AM54 °FMostly cloudy.7 mph77%30.10 "Hg10 mi
6:36 AM54 °FMostly cloudy.10 mph77%30.09 "Hg10 mi
6:16 AM54 °FMostly cloudy.12 mph77%30.09 "Hg10 mi
5:56 AM54 °FMostly cloudy.12 mph77%30.08 "Hg10 mi
5:36 AM54 °FMostly cloudy.17 mph77%30.08 "Hg10 mi
5:16 AM54 °FOvercast.15 mph77%30.08 "Hg10 mi
4:56 AM54 °FMostly cloudy.17 mph77%30.08 "Hg10 mi
4:36 AM54 °FOvercast.10 mph77%30.07 "Hg10 mi
4:16 AM54 °FMostly cloudy.14 mph77%30.08 "Hg10 mi
3:56 AM54 °FOvercast.12 mph77%30.07 "Hg10 mi
3:36 AM54 °FOvercast.12 mph77%30.07 "Hg10 mi
3:16 AM54 °FMostly cloudy.12 mph77%30.07 "Hg10 mi
2:56 AM54 °FMostly cloudy.14 mph77%30.07 "Hg10 mi
2:36 AM54 °FMostly cloudy.12 mph77%30.07 "Hg10 mi
2:16 AM54 °FMostly cloudy.9 mph77%30.07 "Hg10 mi
1:56 AM54 °FMostly cloudy.10 mph77%30.07 "Hg10 mi
1:36 AM54 °FOvercast.10 mph77%30.07 "Hg10 mi
1:16 AM52 °FOvercast.8 mph82%30.07 "Hg10 mi
12:56 AM52 °FOvercast.9 mph82%30.07 "Hg10 mi
12:36 AM52 °FOvercast.9 mph82%30.06 "Hg10 mi
12:16 AM52 °FOvercast.10 mph82%30.06 "Hg10 mi
11:56 PM
Sat, Aug 27
52 °FOvercast.9 mph82%30.06 "Hg10 mi
11:36 PM52 °FMostly cloudy.10 mph82%30.05 "Hg10 mi
11:16 PM52 °FMostly cloudy.8 mph82%30.05 "Hg10 mi
10:56 PM52 °FOvercast.12 mph82%30.05 "Hg8 mi
10:36 PM52 °FMostly cloudy.9 mph82%30.05 "Hg5 mi
10:16 PM52 °FMostly cloudy.15 mph82%30.05 "Hg9 mi
Weather by CustomWeather, © 2016

See weather overviewHow to use our weather pages